Location: Kershaw
(34.5481°N, 80.5823°W)
Time: 08:05:17
(UTC+00:00)

Tiros 1 despin weight - Pass Details

Date: 05 October 2022
Orbit: 590 x 637 km, 48.2° (Epoch: 28 November)

Event Time Altitude Azimuth Distance (km) Brightness Sun altitude
Rises 23:55:04 0° 310° (NW) 2,871 ? -12.0°
Reaches altitude 10° 23:58:08 10° 332° (NNW) 1,976 ? -12.6°
Maximum altitude 00:01:02 16° 12° (NNE) 1,603 ? -13.2°
Enters shadow 00:03:36 11° 48° (NE) 1,912 ? -13.8°
Drops below altitude 10° 00:03:57 10° 51° (NE) 1,995 - -13.8°
Sets 00:07:04 0° 73° (ENE) 2,910 - -14.5°
